View from above orbital plane
|
View from above satellite
|
Ground track
|
The orbit data is extracted from the following two-line orbital elements,
1 40900U 15049B 21023.45714216 .00002862 00000-0 11626-3 0 9997
2 40900 97.4263 38.5906 0010710 293.8906 172.1430 15.25348079296710
Epoch (UTC): | 23 January 2021 10:58:17 |
Eccentricity: | 0.0010710 |
inclination: | 97.4263° |
perigee height: | 482 km |
apogee height: | 497 km |
right ascension of ascending node: | 38.5906° |
argument of perigee: | 293.8906° |
revolutions per day: | 15.25348079 |
mean anomaly at epoch: | 172.1430° |
orbit number at epoch: | 29671 |
The dashed part of the orbit path shows where the satellite is in the earth's shadow,
|
|